M I D A S
Marine Information and Data Acquisition System
Tripno 642 of the Zeeleeuw from 2004-02-04 07:15:13 to 2004-02-04 13:43:02
Back to CruiseResearch ActivitiesStationsMapUnderway DataData graphs

EquipmentUnitsComment
TimeDGPSUTC
LatitudeDGPSDM.mWGS84
LongitudeDGPSDM.mWGS84
HeadingGyrodeg 
SOGDGPSknotsSpeed over ground
COGDGPSdegCourse over ground
DepthEcho soundermeters200 kHz
Missing or incorrect values are displayed as -999
Navigation data collected by the RV Zeeleeuw from 2004-02-04 07:15:13 to 2004-02-04 13:43:02
                                                                                    Next 1000 lines
Time Latitude Longitude Heading SOG COG Depth
2004-02-04 07:15:18 51°13.595 2°56.108 126.8 0.1 114 7.1
2004-02-04 07:15:24 51°13.595 2°56.108 126.5   37 7
2004-02-04 07:15:29 51°13.595 2°56.108 126.3   21 7.1
2004-02-04 07:15:34 51°13.595 2°56.108 125.8   241 7
2004-02-04 07:15:38 51°13.595 2°56.108 125.5   276 7.1
2004-02-04 07:15:44 51°13.595 2°56.108 125.5   38 7.1
2004-02-04 07:15:49 51°13.595 2°56.108 125.6 0.1 90 7.1
2004-02-04 07:15:54 51°13.595 2°56.108 125.3 0.1 181 7.1
2004-02-04 07:15:59 51°13.595 2°56.108 124 0.1 188 7.1
2004-02-04 07:16:04 51°13.595 2°56.108 122.5 0.1 197 7.2
2004-02-04 07:16:09 51°13.594 2°56.108 121.2 0.1 185 7.2
2004-02-04 07:16:14 51°13.594 2°56.108 119.6 0.1 187 7.1
2004-02-04 07:16:18 51°13.594 2°56.108 118 0.1 198 7.2
2004-02-04 07:16:24 51°13.595 2°56.108 116.2 0.2 270 -999
2004-02-04 07:16:29 51°13.595 2°56.107 115.4 0.4 293 7.1
2004-02-04 07:16:34 51°13.595 2°56.105 114.6 0.7 288 7.2
2004-02-04 07:16:40 51°13.596 2°56.102 114.4 1.1 291 7.2
2004-02-04 07:16:44 51°13.597 2°56.099 114.4 1.8 293 7.2
2004-02-04 07:16:49 51°13.598 2°56.094 114.8 2.1 294 -999
2004-02-04 07:16:55 51°13.6 2°56.088 115.4 2.5 294 -999
2004-02-04 07:17:00 51°13.601 2°56.082 115.8 2.7 295 -999
2004-02-04 07:17:05 51°13.603 2°56.076 115.9 3 295 -999
2004-02-04 07:17:10 51°13.605 2°56.07 115.9 3.2 295 -999
2004-02-04 07:17:15 51°13.606 2°56.063 115.9 3.4 293 -999
2004-02-04 07:17:20 51°13.608 2°56.056 115.9 3.4 294 -999
2004-02-04 07:17:25 51°13.61 2°56.048 115.9 3.7 293 -999
2004-02-04 07:17:30 51°13.612 2°56.041 115.9 3.7 294 -999
2004-02-04 07:17:34 51°13.614 2°56.035 115.7 3.8 293 -999
2004-02-04 07:17:40 51°13.617 2°56.025 115.7 3.8 294 -999
2004-02-04 07:17:45 51°13.619 2°56.018 115.8 3.9 293 -999
2004-02-04 07:17:50 51°13.621 2°56.01 116 3.8 294 -999
2004-02-04 07:17:54 51°13.623 2°56.004 116.3 3.9 294 -999
2004-02-04 07:18:00 51°13.625 2°55.994 116.5 3.9 294 -999
2004-02-04 07:18:05 51°13.628 2°55.986 116.5 3.9 295 -999
2004-02-04 07:18:10 51°13.63 2°55.978 116.3 4 295 -999
2004-02-04 07:18:14 51°13.632 2°55.972 115.9 4 294 -999
2004-02-04 07:18:20 51°13.634 2°55.963 115.4 3.8 294 4.9
2004-02-04 07:18:25 51°13.636 2°55.956 114.4 3.4 292 5.1
2004-02-04 07:18:29 51°13.637 2°55.952 113.2 3 293 4.9
2004-02-04 07:18:34 51°13.638 2°55.947 113 2.4 294 10.2
2004-02-04 07:18:38 51°13.638 2°55.945 113.2 1.8 293 10.2
2004-02-04 07:18:44 51°13.639 2°55.944 114.4 0.7 303 10.1
2004-02-04 07:18:49 51°13.639 2°55.942 116.1 0.6 286 10.1
2004-02-04 07:18:54 51°13.64 2°55.94 117.9 0.9 299 10.1
2004-02-04 07:18:59 51°13.64 2°55.938 118.9 1.3 289 10.1
2004-02-04 07:19:04 51°13.641 2°55.934 119 1.4 290 10
2004-02-04 07:19:09 51°13.642 2°55.93 118.7 1.9 291 10
2004-02-04 07:19:14 51°13.643 2°55.926 118.4 2.1 293 9.8
2004-02-04 07:19:20 51°13.645 2°55.92 118.3 2.3 292 -999
2004-02-04 07:19:25 51°13.646 2°55.915 119.3 2.6 294 -999
2004-02-04 07:19:30 51°13.648 2°55.909 120.5 2.7 294 -999
2004-02-04 07:19:34 51°13.649 2°55.904 121.7 3 296 -999
2004-02-04 07:19:40 51°13.652 2°55.897 122.6 3.1 296 -999
2004-02-04 07:19:45 51°13.654 2°55.891 123.5 3.3 299 -999
2004-02-04 07:19:50 51°13.657 2°55.884 124.2 3.3 300 -999
2004-02-04 07:19:55 51°13.659 2°55.878 125 3.5 301 -999
2004-02-04 07:20:00 51°13.662 2°55.871 125.7 3.5 302 -999
2004-02-04 07:20:05 51°13.665 2°55.864 126.2 3.7 303 -999
2004-02-04 07:20:09 51°13.667 2°55.859 126.8 3.7 304 -999
2004-02-04 07:20:14 51°13.67 2°55.852 127.3 3.8 306 -999
2004-02-04 07:20:20 51°13.674 2°55.844 128 3.7 306 -999
2004-02-04 07:20:25 51°13.676 2°55.839 128.7 3 308 -999
2004-02-04 07:20:30 51°13.678 2°55.836 128.4 2.3 309 -999
2004-02-04 07:20:34 51°13.679 2°55.835 126.7 1 320 9.4
2004-02-04 07:20:39 51°13.679 2°55.836 123.5 0.4 1 9.3
2004-02-04 07:20:44 51°13.679 2°55.837 117.6 0.6 89 9.3
2004-02-04 07:20:49 51°13.679 2°55.839 112.2 0.7 81 -999
2004-02-04 07:20:54 51°13.679 2°55.84 106.8 0.5 78 9.5
2004-02-04 07:20:58 51°13.68 2°55.84 104.1 0.3 67 9.4
2004-02-04 07:21:04 51°13.68 2°55.839 101.9 0.4 317 9.5
2004-02-04 07:21:09 51°13.681 2°55.838 100.1 0.7 305 9.5
2004-02-04 07:21:14 51°13.681 2°55.836 98.2 1.1 292 9.5
2004-02-04 07:21:19 51°13.682 2°55.833 96.5 1.2 289 9.5
2004-02-04 07:21:24 51°13.683 2°55.829 94.1 1.7 283 9.5
2004-02-04 07:21:29 51°13.683 2°55.825 92 2 278 -999
2004-02-04 07:21:34 51°13.683 2°55.82 89.2 2.3 273 -999
2004-02-04 07:21:40 51°13.683 2°55.813 86.8 2.4 271 -999
2004-02-04 07:21:45 51°13.683 2°55.807 84.1 2.7 266 -999
2004-02-04 07:21:50 51°13.682 2°55.8 82.5 2.9 264 -999
2004-02-04 07:21:54 51°13.682 2°55.795 80.4 3.1 263 -999
2004-02-04 07:22:00 51°13.68 2°55.786 79 3.3 260 -999
2004-02-04 07:22:05 51°13.679 2°55.778 77.2 3.6 258 -999
2004-02-04 07:22:10 51°13.678 2°55.77 76 3.6 257 -999
2004-02-04 07:22:15 51°13.677 2°55.763 74.1 3.3 256 11.5
2004-02-04 07:22:20 51°13.677 2°55.758 73.1 3.1 257 11.2
2004-02-04 07:22:24 51°13.676 2°55.756 71.1 1.5 260 11
2004-02-04 07:22:28 51°13.677 2°55.755 66.7 0.7 292 11
2004-02-04 07:22:34 51°13.678 2°55.755 61.4 0.6 330 11.2
2004-02-04 07:22:38 51°13.68 2°55.757 55.1 1.4 25 12.4
2004-02-04 07:22:44 51°13.684 2°55.759 43.7 2.7 20 13
2004-02-04 07:22:49 51°13.689 2°55.761 33.6 3.3 15 13.6
2004-02-04 07:22:54 51°13.694 2°55.761 23.3 3.3 15 14
2004-02-04 07:22:59 51°13.701 2°55.76 13.1 4.2 1 14
2004-02-04 07:23:04 51°13.707 2°55.758 4.5 5 346 14.1
2004-02-04 07:23:09 51°13.714 2°55.754 354 5 340 13.5
2004-02-04 07:23:14 51°13.72 2°55.749 343.7 5 340 12.8
2004-02-04 07:23:19 51°13.727 2°55.743 339.2 5.2 333 11.2
2004-02-04 07:23:24 51°13.734 2°55.737 336.9 5.6 331 9.8
2004-02-04 07:23:29 51°13.741 2°55.731 335.7 5.6 331 9.6
2004-02-04 07:23:34 51°13.748 2°55.724 334.7 6 328 10
2004-02-04 07:23:39 51°13.755 2°55.716 333.3 6.2 327 9.7
2004-02-04 07:23:44 51°13.763 2°55.709 332.4 6.4 327 9.3
2004-02-04 07:23:49 51°13.771 2°55.701 332.3 6.6 327 9.4
2004-02-04 07:23:54 51°13.779 2°55.692 332.3 6.7 327 9.5
2004-02-04 07:24:00 51°13.788 2°55.682 331.3 6.9 325 9.6
2004-02-04 07:24:04 51°13.794 2°55.675 330.8 7.1 325 9.5
2004-02-04 07:24:09 51°13.803 2°55.665 330.5 7.2 325 9.6
2004-02-04 07:24:14 51°13.811 2°55.656 330.2 7.3 326 10.1
2004-02-04 07:24:18 51°13.818 2°55.649 330.2 7.4 326 10.3
2004-02-04 07:24:24 51°13.829 2°55.638 330.3 7.5 327 10.3
2004-02-04 07:24:29 51°13.838 2°55.629 330.9 7.6 328 10.3
2004-02-04 07:24:34 51°13.847 2°55.621 332.4 7.7 329 9.9
2004-02-04 07:24:38 51°13.854 2°55.615 334.1 7.7 331 9.6
2004-02-04 07:24:44 51°13.866 2°55.605 335.9 7.8 333 10.3
2004-02-04 07:24:49 51°13.876 2°55.598 337.3 7.9 334 9.7
2004-02-04 07:24:54 51°13.886 2°55.59 339 7.9 335 9.7
2004-02-04 07:25:00 51°13.898 2°55.581 339.6 7.9 334 9.6
2004-02-04 07:25:04 51°13.906 2°55.575 339.8 8 336 9.8
2004-02-04 07:25:09 51°13.916 2°55.568 340.4 8.1 336 9.6
2004-02-04 07:25:14 51°13.926 2°55.561 340.5 8.1 336 9.8
2004-02-04 07:25:19 51°13.936 2°55.553 340.4 8 335 9.6
2004-02-04 07:25:24 51°13.946 2°55.546 340.4 7.9 336 9.7
2004-02-04 07:25:29 51°13.956 2°55.539 340.7 7.9 336 9.8
2004-02-04 07:25:34 51°13.966 2°55.532 341.1 7.8 336 9.7
2004-02-04 07:25:39 51°13.976 2°55.525 341.2 7.9 336 9.7
2004-02-04 07:25:44 51°13.986 2°55.518 341.2 7.9 337 9.6
2004-02-04 07:25:49 51°13.996 2°55.511 341.3 8 337 9.5
2004-02-04 07:25:54 51°14.007 2°55.504 341.3 8.1 337 9.3
2004-02-04 07:25:58 51°14.015 2°55.498 341.6 8.1 337 9.3
2004-02-04 07:26:04 51°14.028 2°55.489 341.5 8.3 336 9.2
2004-02-04 07:26:09 51°14.038 2°55.482 340.9 8.3 336 9.1
2004-02-04 07:26:14 51°14.049 2°55.474 340.5 8.3 336 9.1
2004-02-04 07:26:20 51°14.061 2°55.465 340.5 8.4 335 9
2004-02-04 07:26:24 51°14.07 2°55.458 340.5 8.5 335 8.9
2004-02-04 07:26:29 51°14.08 2°55.45 340.4 8.5 334 8.9
2004-02-04 07:26:34 51°14.091 2°55.442 339.6 8.5 334 8.9
2004-02-04 07:26:39 51°14.102 2°55.434 339.4 8.7 334 8.9
2004-02-04 07:26:44 51°14.113 2°55.425 339.3 8.9 334 8.9
2004-02-04 07:26:49 51°14.124 2°55.415 338.4 8.9 334 9.5
2004-02-04 07:26:54 51°14.136 2°55.405 337 9.4 331 9.2
2004-02-04 07:26:59 51°14.147 2°55.395 336 9.5 331 9.2
2004-02-04 07:27:04 51°14.159 2°55.384 335.6 9.6 330 9.5
2004-02-04 07:27:09 51°14.171 2°55.373 335.1 9.8 329 9.7
2004-02-04 07:27:14 51°14.182 2°55.361 334 9.9 328 10.8
2004-02-04 07:27:18 51°14.192 2°55.352 332.8 9.9 328 10.4
2004-02-04 07:27:24 51°14.205 2°55.337 331.7 10 325 9.6
2004-02-04 07:27:29 51°14.217 2°55.324 330.4 10 324 9.6
2004-02-04 07:27:34 51°14.228 2°55.31 328.6 10 324 9.7
2004-02-04 07:27:39 51°14.239 2°55.296 327.3 10.2 321 9.9
2004-02-04 07:27:44 51°14.25 2°55.281 326.4 10.5 320 9.7
2004-02-04 07:27:49 51°14.262 2°55.265 325 10.8 318 10.1
2004-02-04 07:27:54 51°14.273 2°55.248 322.9 11.1 315 9.9
2004-02-04 07:28:00 51°14.285 2°55.225 320.6 11.2 314 9.9
2004-02-04 07:28:04 51°14.294 2°55.21 318 11.7 312 9.9
2004-02-04 07:28:09 51°14.305 2°55.19 316.6 11.8 312 9.8
2004-02-04 07:28:14 51°14.316 2°55.17 316.8 12 312 9.9
2004-02-04 07:28:19 51°14.327 2°55.149 315.7 12.2 311 9.8
2004-02-04 07:28:24 51°14.339 2°55.129 316.3 12.4 312 9.8
2004-02-04 07:28:29 51°14.352 2°55.11 317.7 12.4 314 9.8
2004-02-04 07:28:34 51°14.364 2°55.09 319.4 12.6 314 9.8
2004-02-04 07:28:39 51°14.376 2°55.07 320 12.6 315 10
2004-02-04 07:28:44 51°14.388 2°55.05 319.8 12.8 314 10.7
2004-02-04 07:28:49 51°14.401 2°55.03 320.6 12.9 317 10.5
2004-02-04 07:28:54 51°14.415 2°55.012 322.9 13 319 10.4
2004-02-04 07:28:59 51°14.43 2°54.995 326.3 13 319 10.4
2004-02-04 07:29:04 51°14.445 2°54.979 330.2 12.9 328 10.2
2004-02-04 07:29:09 51°14.46 2°54.965 334 12.9 330 9.8
2004-02-04 07:29:14 51°14.476 2°54.951 337 12.9 330 9.7
2004-02-04 07:29:19 51°14.491 2°54.937 337.5 12.9 330 9.7
2004-02-04 07:29:24 51°14.506 2°54.922 337 12.9 329 9.5
2004-02-04 07:29:29 51°14.521 2°54.906 336 12.9 327 9.5
2004-02-04 07:29:34 51°14.535 2°54.89 334.2 12.8 325 9.5
2004-02-04 07:29:40 51°14.552 2°54.868 332.4 12.9 322 9.6
2004-02-04 07:29:44 51°14.563 2°54.853 329.2 12.9 319 9.6
2004-02-04 07:29:49 51°14.576 2°54.834 326.9 13 318 9.6
2004-02-04 07:29:54 51°14.589 2°54.815 325.1 13 317 9.5
2004-02-04 07:29:59 51°14.602 2°54.794 323.7 13 315 9.5
2004-02-04 07:30:04 51°14.614 2°54.773 321.8 13 314 9.5
2004-02-04 07:30:09 51°14.626 2°54.751 320.5 13 311 9.4
2004-02-04 07:30:14 51°14.637 2°54.729 318.8 13 310 9.4
2004-02-04 07:30:19 51°14.648 2°54.706 316.7 13 308 9.4
2004-02-04 07:30:24 51°14.658 2°54.681 312.8 13 305 9.4
2004-02-04 07:30:29 51°14.666 2°54.656 309.8 13 298 9.4
2004-02-04 07:30:34 51°14.673 2°54.63 305.5 13 298 9.3
2004-02-04 07:30:39 51°14.679 2°54.603 301.1 12.9 290 9.4
2004-02-04 07:30:44 51°14.683 2°54.575 296 12.9 289 9.5
2004-02-04 07:30:49 51°14.686 2°54.547 292.5 12.9 281 9.6
2004-02-04 07:30:54 51°14.688 2°54.519 287.7 12.8 278 9.7
2004-02-04 07:31:00 51°14.687 2°54.487 282.2 12.7 273 9.7
2004-02-04 07:31:04 51°14.685 2°54.467 275.2 11.5 263 9.7
2004-02-04 07:31:09 51°14.682 2°54.443 268.8 10.8 260 9.8
2004-02-04 07:31:14 51°14.679 2°54.422 263.4 10.2 256 9.9
2004-02-04 07:31:18 51°14.675 2°54.407 258.4 9.5 253 10.1
2004-02-04 07:31:24 51°14.67 2°54.386 252.9 8.4 247 10.2
2004-02-04 07:31:29 51°14.665 2°54.371 249.6 7.9 244 10.3
2004-02-04 07:31:34 51°14.66 2°54.357 245.7 7.3 240 10.3
2004-02-04 07:31:39 51°14.655 2°54.344 242.4 7.1 239 10.3
2004-02-04 07:31:44 51°14.649 2°54.333 239.4 6.4 235 10.4
2004-02-04 07:31:49 51°14.644 2°54.322 236.6 6.3 234 10.4
2004-02-04 07:31:54 51°14.639 2°54.312 234.2 5.9 232 10.5
2004-02-04 07:32:00 51°14.633 2°54.302 232.1 5.6 229 10.3
2004-02-04 07:32:04 51°14.629 2°54.295 229.3 5.1 226 10.7
2004-02-04 07:32:09 51°14.625 2°54.288 227.1 4.8 225 10.8
2004-02-04 07:32:14 51°14.62 2°54.281 225 4.8 225 11.1
2004-02-04 07:32:19 51°14.615 2°54.275 223.5 4.5 223 11.4
2004-02-04 07:32:24 51°14.611 2°54.269 222.3 4.2 221 11.2
2004-02-04 07:32:29 51°14.607 2°54.263 221.6 4.2 221 11.1
2004-02-04 07:32:34 51°14.602 2°54.258 220.5 3.9 218 11.2
2004-02-04 07:32:40 51°14.598 2°54.252 219.5 3.7 219 11.4
2004-02-04 07:32:44 51°14.594 2°54.248 218.9 3.6 218 11.2
2004-02-04 07:32:48 51°14.591 2°54.244 218 3.4 217 11.5
2004-02-04 07:32:54 51°14.587 2°54.239 217.4 3.3 218 11.5
2004-02-04 07:32:58 51°14.584 2°54.235 216.9 3.2 217 11.5
2004-02-04 07:33:04 51°14.58 2°54.231 216 3 216 11.2
2004-02-04 07:33:09 51°14.577 2°54.227 215 2.9 215 11.4
2004-02-04 07:33:14 51°14.574 2°54.223 214.9 2.9 216 11.3
2004-02-04 07:33:19 51°14.57 2°54.22 214.8 2.7 216 11.3
2004-02-04 07:33:24 51°14.567 2°54.216 214.7 2.7 216 11.4
2004-02-04 07:33:29 51°14.564 2°54.213 214.8 2.5 214 11.2
2004-02-04 07:33:34 51°14.561 2°54.21 214.6 2.4 214 11.3
2004-02-04 07:33:40 51°14.558 2°54.207 214.3 2.4 216 11.4
2004-02-04 07:33:44 51°14.556 2°54.205 214.1 2.3 215 11.2
2004-02-04 07:33:49 51°14.554 2°54.202 214.4 2.2 215 11.3
2004-02-04 07:33:54 51°14.551 2°54.199 214.5 2.2 215 11.4
2004-02-04 07:33:59 51°14.549 2°54.197 214.8 2 217 11.4
2004-02-04 07:34:04 51°14.547 2°54.194 214.8 1.9 216 11.3
2004-02-04 07:34:09 51°14.545 2°54.192 214.9 1.9 216 11.3
2004-02-04 07:34:14 51°14.543 2°54.19 215.2 1.8 214 11.3
2004-02-04 07:34:20 51°14.541 2°54.187 215.3 1.8 216 11.4
2004-02-04 07:34:24 51°14.539 2°54.185 215.3 1.6 216 11.3
2004-02-04 07:34:29 51°14.538 2°54.183 215.4 1.6 219 11.3
2004-02-04 07:34:34 51°14.535 2°54.18 215.7 1.6 219 11.2
2004-02-04 07:34:39 51°14.532 2°54.176 216.3 2.4 218 11.2
2004-02-04 07:34:44 51°14.529 2°54.171 218.4 3.7 222 11.2
2004-02-04 07:34:49 51°14.524 2°54.164 222.6 4.1 225 11.2
2004-02-04 07:34:54 51°14.52 2°54.156 228.1 4.8 229 11.1
2004-02-04 07:35:00 51°14.515 2°54.144 233.8 5.2 235 11.2
2004-02-04 07:35:04 51°14.512 2°54.135 239.8 6 237 11
2004-02-04 07:35:09 51°14.507 2°54.122 242.4 6.7 238 10.6
2004-02-04 07:35:14 51°14.501 2°54.107 243.2 6.7 238 10.2
2004-02-04 07:35:20 51°14.493 2°54.087 243.3 8.2 238 10
2004-02-04 07:35:24 51°14.488 2°54.073 242.9 9.5 238 9.9
2004-02-04 07:35:29 51°14.48 2°54.053 243.1 10.1 239 9.9
2004-02-04 07:35:34 51°14.472 2°54.033 243.1 10.1 239 9.8
2004-02-04 07:35:40 51°14.463 2°54.007 243.1 11.1 239 9.7
2004-02-04 07:35:44 51°14.456 2°53.989 243.4 12 240 9.8
2004-02-04 07:35:48 51°14.449 2°53.97 243.7 12.3 239 9.9
2004-02-04 07:35:54 51°14.438 2°53.941 243.4 12.8 240 9.8
2004-02-04 07:35:59 51°14.429 2°53.916 243.4 12.9 239 9.8
2004-02-04 07:36:04 51°14.42 2°53.891 243.1 13.2 239 9.8
2004-02-04 07:36:09 51°14.41 2°53.866 243.2 13.4 239 9.8
2004-02-04 07:36:14 51°14.401 2°53.84 243.1 13.4 239 9.8
2004-02-04 07:36:19 51°14.391 2°53.814 243.5 13.6 239 9.8
2004-02-04 07:36:24 51°14.382 2°53.788 243.6 13.7 239 9.8
2004-02-04 07:36:28 51°14.374 2°53.767 243.5 13.7 239 9.7
2004-02-04 07:36:34 51°14.363 2°53.736 243.3 13.9 239 9.7
2004-02-04 07:36:38 51°14.355 2°53.715 243.2 13.8 239 9.8
2004-02-04 07:36:44 51°14.343 2°53.683 243.4 13.9 239 9.7
2004-02-04 07:36:49 51°14.333 2°53.657 243.4 13.9 239 9.7
2004-02-04 07:36:54 51°14.323 2°53.631 242.8 13.9 237 9.7
2004-02-04 07:37:00 51°14.31 2°53.6 241.9 13.9 237 9.7
2004-02-04 07:37:04 51°14.301 2°53.58 241.1 14 236 9.7
2004-02-04 07:37:09 51°14.29 2°53.554 240.3 14 236 9.7
2004-02-04 07:37:14 51°14.279 2°53.528 240.2 14 236 9.8
2004-02-04 07:37:18 51°14.27 2°53.508 240.1 14 236 9.7
2004-02-04 07:37:24 51°14.257 2°53.477 240 14 236 9.7
2004-02-04 07:37:29 51°14.246 2°53.451 240.2 14 236 9.6
2004-02-04 07:37:34 51°14.236 2°53.425 240.4 14 237 9.7
2004-02-04 07:37:38 51°14.227 2°53.404 241.2 14.1 237 9.7
2004-02-04 07:37:44 51°14.215 2°53.372 241.8 14.1 238 9.7
2004-02-04 07:37:50 51°14.202 2°53.34 242.3 14.1 238 9.8
2004-02-04 07:37:54 51°14.194 2°53.319 242.7 14.1 238 9.8
2004-02-04 07:37:59 51°14.184 2°53.292 243.1 14.2 239 9.9
2004-02-04 07:38:04 51°14.173 2°53.265 243.1 14.1 238 9.9
2004-02-04 07:38:09 51°14.163 2°53.238 242.7 14.1 238 9.9
2004-02-04 07:38:14 51°14.153 2°53.212 242.7 14.1 238 10
2004-02-04 07:38:20 51°14.14 2°53.18 242.6 14.2 238 9.9
2004-02-04 07:38:24 51°14.132 2°53.158 242.6 14.2 238 10.1
2004-02-04 07:38:29 51°14.122 2°53.132 242.8 14.2 239 10.1
2004-02-04 07:38:34 51°14.111 2°53.105 243.1 14.2 239 10.1
2004-02-04 07:38:38 51°14.103 2°53.083 243.1 14.2 238 10.1
2004-02-04 07:38:44 51°14.091 2°53.051 242.8 14.3 238 10.2
2004-02-04 07:38:48 51°14.082 2°53.03 242.5 14.3 238 10.3
2004-02-04 07:38:54 51°14.07 2°52.998 242.8 14.2 238 10.3
2004-02-04 07:38:59 51°14.06 2°52.971 242.7 14.2 238 10.4
2004-02-04 07:39:04 51°14.049 2°52.944 242.9 14.2 239 10.4
2004-02-04 07:39:08 51°14.041 2°52.923 243.2 14.2 239 10.4
2004-02-04 07:39:14 51°14.029 2°52.89 243.2 14.2 239 10.5
2004-02-04 07:39:19 51°14.019 2°52.864 243.1 14.3 239 10.5
2004-02-04 07:39:24 51°14.008 2°52.837 243.1 14.3 239 10.5
2004-02-04 07:39:30 51°13.996 2°52.804 243.3 14.3 238 10.5
2004-02-04 07:39:34 51°13.988 2°52.783 243.3 14.2 239 10.6
2004-02-04 07:39:39 51°13.978 2°52.756 243.3 14.2 239 10.6
2004-02-04 07:39:44 51°13.968 2°52.729 243.1 14.2 239 10.6
2004-02-04 07:39:48 51°13.959 2°52.708 243.1 14.2 238 10.6
2004-02-04 07:39:54 51°13.947 2°52.676 242.5 14.2 239 10.6
2004-02-04 07:39:59 51°13.937 2°52.649 242.9 14.2 239 10.6
2004-02-04 07:40:04 51°13.926 2°52.623 242.9 14.2 238 10.6
2004-02-04 07:40:10 51°13.914 2°52.591 242.8 14.2 238 10.6
2004-02-04 07:40:14 51°13.906 2°52.569 242.4 14.2 238 10.7
2004-02-04 07:40:19 51°13.895 2°52.543 242.4 14.2 238 10.6
2004-02-04 07:40:24 51°13.885 2°52.515 242.9 14.2 239 10.7
2004-02-04 07:40:28 51°13.877 2°52.494 243.1 14.2 238 10.7
2004-02-04 07:40:34 51°13.865 2°52.462 242.8 14.2 239 10.7
2004-02-04 07:40:39 51°13.854 2°52.435 243 14.2 239 10.6
2004-02-04 07:40:44 51°13.844 2°52.408 243.1 14.2 239 10.7
2004-02-04 07:40:50 51°13.832 2°52.376 243.2 14.2 238 10.7
2004-02-04 07:40:54 51°13.823 2°52.355 243.1 14.2 238 10.7
2004-02-04 07:40:59 51°13.813 2°52.328 242.7 14.2 238 10.8
2004-02-04 07:41:04 51°13.802 2°52.301 242.5 14.2 238 10.7
2004-02-04 07:41:10 51°13.79 2°52.269 242.7 14.2 239 10.7
2004-02-04 07:41:14 51°13.782 2°52.247 243.1 14.2 239 10.7
2004-02-04 07:41:20 51°13.769 2°52.215 243.2 14.2 239 10.7
2004-02-04 07:41:24 51°13.761 2°52.193 243.3 14.2 239 10.8
2004-02-04 07:41:29 51°13.751 2°52.166 243.4 14.2 239 10.6
2004-02-04 07:41:34 51°13.74 2°52.14 243 14.2 239 10.8
2004-02-04 07:41:39 51°13.73 2°52.114 243.1 14.2 239 10.7
2004-02-04 07:41:44 51°13.72 2°52.087 243.1 14.2 238 10.7
2004-02-04 07:41:49 51°13.71 2°52.06 243.1 14.2 238 10.7
2004-02-04 07:41:54 51°13.699 2°52.033 243.1 14.2 238 10.8
2004-02-04 07:41:58 51°13.691 2°52.012 243.1 14.2 239 10.7
2004-02-04 07:42:04 51°13.679 2°51.979 243.4 14.2 239 10.7
2004-02-04 07:42:09 51°13.669 2°51.952 243.7 14.2 239 10.7
2004-02-04 07:42:14 51°13.658 2°51.926 243.8 14.2 239 10.8
2004-02-04 07:42:20 51°13.646 2°51.894 243.3 14.2 239 10.8
2004-02-04 07:42:24 51°13.638 2°51.872 243.1 14.3 239 10.8
2004-02-04 07:42:29 51°13.627 2°51.845 243 14.2 239 10.9
2004-02-04 07:42:34 51°13.617 2°51.819 243.2 14.2 239 10.7
2004-02-04 07:42:39 51°13.607 2°51.791 243.2 14.3 240 10.8
2004-02-04 07:42:44 51°13.597 2°51.765 243.8 14.2 240 10.9
2004-02-04 07:42:49 51°13.586 2°51.738 243.5 14.2 239 10.9
2004-02-04 07:42:54 51°13.576 2°51.711 243.1 14.3 238 10.9
2004-02-04 07:43:00 51°13.563 2°51.679 242.8 14.3 238 10.9
2004-02-04 07:43:04 51°13.555 2°51.657 243.1 14.3 239 11
2004-02-04 07:43:09 51°13.545 2°51.63 243.1 14.3 239 11
2004-02-04 07:43:14 51°13.535 2°51.603 243.3 14.3 239 11
2004-02-04 07:43:18 51°13.527 2°51.582 243.6 14.3 239 10.9
2004-02-04 07:43:24 51°13.515 2°51.549 244.2 14.3 239 11
2004-02-04 07:43:28 51°13.507 2°51.527 244.1 14.3 240 11
2004-02-04 07:43:34 51°13.495 2°51.494 244.5 14.3 240 10.9
2004-02-04 07:43:39 51°13.486 2°51.467 244.5 14.3 240 11
2004-02-04 07:43:44 51°13.476 2°51.44 244.8 14.2 240 11
2004-02-04 07:43:49 51°13.466 2°51.413 244.4 14.3 240 11
2004-02-04 07:43:54 51°13.455 2°51.386 243.8 14.3 240 11.1
2004-02-04 07:43:59 51°13.445 2°51.358 243.8 14.3 240 11
2004-02-04 07:44:04 51°13.435 2°51.331 243.8 14.3 240 11
2004-02-04 07:44:09 51°13.425 2°51.304 243.8 14.3 240 11.1
2004-02-04 07:44:14 51°13.415 2°51.277 243.9 14.3 240 11.1
2004-02-04 07:44:20 51°13.404 2°51.244 244.2 14.3 240 11.1
2004-02-04 07:44:24 51°13.396 2°51.222 244.3 14.3 241 11.1
2004-02-04 07:44:29 51°13.386 2°51.194 244.6 14.3 240 11.1
2004-02-04 07:44:34 51°13.377 2°51.167 244.6 14.3 240 11.1
2004-02-04 07:44:40 51°13.365 2°51.134 244.7 14.3 240 11.1
2004-02-04 07:44:44 51°13.357 2°51.112 244.5 14.3 240 11.1
2004-02-04 07:44:49 51°13.347 2°51.085 244.2 14.3 239 11.1
2004-02-04 07:44:54 51°13.336 2°51.057 243.8 14.3 240 11.1
2004-02-04 07:44:59 51°13.326 2°51.03 243.8 14.3 240 11.2
2004-02-04 07:45:04 51°13.316 2°51.003 244 14.3 240 11.1
2004-02-04 07:45:09 51°13.306 2°50.976 244.2 14.2 240 11.1
2004-02-04 07:45:14 51°13.296 2°50.948 243.8 14.2 240 11.2
2004-02-04 07:45:19 51°13.286 2°50.921 244.1 14.3 240 11.2
2004-02-04 07:45:24 51°13.277 2°50.893 244.4 14.3 241 11.2
2004-02-04 07:45:29 51°13.267 2°50.866 244.7 14.3 240 11.2
2004-02-04 07:45:34 51°13.257 2°50.838 244.4 14.3 240 11.2
2004-02-04 07:45:38 51°13.249 2°50.817 244.2 14.3 240 11.3
2004-02-04 07:45:44 51°13.237 2°50.784 244.2 14.2 240 11.2
2004-02-04 07:45:49 51°13.227 2°50.757 243.8 14.2 240 11.2
2004-02-04 07:45:54 51°13.217 2°50.73 243.8 14.3 240 11.2
2004-02-04 07:46:00 51°13.205 2°50.697 244 14.3 240 11.2
2004-02-04 07:46:04 51°13.197 2°50.675 244.1 14.3 240 11.2
2004-02-04 07:46:09 51°13.187 2°50.648 244.5 14.3 240 11.2
2004-02-04 07:46:14 51°13.177 2°50.621 244.3 14.3 240 11.3
2004-02-04 07:46:18 51°13.169 2°50.599 243.9 14.3 240 11.3
2004-02-04 07:46:24 51°13.157 2°50.566 243.9 14.3 240 11.3
2004-02-04 07:46:29 51°13.147 2°50.539 244 14.3 240 11.3
2004-02-04 07:46:34 51°13.137 2°50.511 243.8 14.3 240 11.3
2004-02-04 07:46:39 51°13.128 2°50.484 244 14.3 240 11.3
2004-02-04 07:46:44 51°13.118 2°50.457 244.1 14.2 240 11.4
2004-02-04 07:46:49 51°13.108 2°50.43 244.1 14.3 240 11.3
2004-02-04 07:46:54 51°13.098 2°50.403 243.9 14.3 239 11.3
2004-02-04 07:47:00 51°13.086 2°50.37 243.8 14.3 240 11.3
2004-02-04 07:47:04 51°13.078 2°50.348 243.7 14.3 239 11.3
2004-02-04 07:47:08 51°13.07 2°50.326 244.1 14.3 240 11.4
2004-02-04 07:47:14 51°13.058 2°50.294 244.1 14.3 240 11.4
2004-02-04 07:47:18 51°13.05 2°50.272 244.2 14.3 240 11.4
2004-02-04 07:47:24 51°13.038 2°50.239 243.9 14.3 240 11.5
2004-02-04 07:47:29 51°13.028 2°50.212 243.9 14.3 239 11.5
2004-02-04 07:47:34 51°13.018 2°50.185 243.8 14.2 240 11.5
2004-02-04 07:47:40 51°13.006 2°50.152 243.8 14.3 239 11.5
2004-02-04 07:47:44 51°12.998 2°50.13 243.8 14.2 240 11.5
2004-02-04 07:47:49 51°12.988 2°50.104 244 14.2 240 11.5
2004-02-04 07:47:54 51°12.978 2°50.076 244.1 14.2 240 11.4
2004-02-04 07:48:00 51°12.966 2°50.044 243.8 14.2 240 11.6
2004-02-04 07:48:04 51°12.958 2°50.022 243.8 14.2 239 11.5
2004-02-04 07:48:09 51°12.949 2°49.995 243.8 14.2 240 11.6
2004-02-04 07:48:14 51°12.939 2°49.968 244 14.2 240 11.6
2004-02-04 07:48:20 51°12.926 2°49.936 244.1 14.2 240 11.6
2004-02-04 07:48:24 51°12.918 2°49.914 244.4 14.2 240 11.5
2004-02-04 07:48:29 51°12.909 2°49.887 244.6 14.2 240 11.6
2004-02-04 07:48:34 51°12.899 2°49.86 244.5 14.2 240 11.5
2004-02-04 07:48:39 51°12.889 2°49.833 244.2 14.2 240 11.6
2004-02-04 07:48:44 51°12.879 2°49.806 244.1 14.2 240 11.6
2004-02-04 07:48:49 51°12.869 2°49.779 244.2 14.2 240 11.7
2004-02-04 07:48:54 51°12.859 2°49.751 244.4 14.2 240 11.8
2004-02-04 07:48:58 51°12.852 2°49.73 244.5 14.2 240 11.6
2004-02-04 07:49:04 51°12.84 2°49.697 244.5 14.2 240 11.7
2004-02-04 07:49:09 51°12.83 2°49.67 244.4 14.2 240 11.7
2004-02-04 07:49:14 51°12.82 2°49.643 244.4 14 240 11.7
2004-02-04 07:49:20 51°12.808 2°49.611 243.8 14.1 239 11.7
2004-02-04 07:49:24 51°12.8 2°49.59 243.9 14.1 240 11.7
2004-02-04 07:49:28 51°12.792 2°49.568 244 14.1 240 11.6
2004-02-04 07:49:34 51°12.781 2°49.536 244.3 14.1 240 11.7
2004-02-04 07:49:40 51°12.769 2°49.504 244.4 14.1 240 11.8
2004-02-04 07:49:44 51°12.761 2°49.482 244.5 14.1 240 11.8
2004-02-04 07:49:49 51°12.751 2°49.455 244.4 14.1 240 11.8
2004-02-04 07:49:54 51°12.741 2°49.428 244.2 14.1 240 11.8
2004-02-04 07:49:59 51°12.732 2°49.401 244.1 14.1 240 11.8
2004-02-04 07:50:04 51°12.722 2°49.374 244.1 14.1 239 11.8
2004-02-04 07:50:09 51°12.712 2°49.347 244 14.1 240 11.8
2004-02-04 07:50:14 51°12.702 2°49.32 244.3 14.1 240 11.9
2004-02-04 07:50:20 51°12.69 2°49.287 244.5 14.1 240 11.8
2004-02-04 07:50:24 51°12.683 2°49.266 244.8 14.1 240 11.8
2004-02-04 07:50:30 51°12.671 2°49.234 244.7 14.1 240 11.9
2004-02-04 07:50:34 51°12.663 2°49.213 244.3 14.1 239 11.8
2004-02-04 07:50:39 51°12.653 2°49.186 243.9 14.1 240 11.9
2004-02-04 07:50:44 51°12.643 2°49.159 244.2 14.1 240 11.9
2004-02-04 07:50:48 51°12.635 2°49.137 244.2 14.1 240 11.8
2004-02-04 07:50:54 51°12.623 2°49.105 244.7 14.1 240 12
2004-02-04 07:51:00 51°12.611 2°49.073 244.8 14.1 239 12
2004-02-04 07:51:04 51°12.603 2°49.051 244.3 14.1 240 12
2004-02-04 07:51:09 51°12.594 2°49.024 244.1 14.1 240 11.9
2004-02-04 07:51:14 51°12.584 2°48.997 244.3 14.1 240 12
2004-02-04 07:51:19 51°12.575 2°48.97 244.6 14 240 12
2004-02-04 07:51:24 51°12.565 2°48.944 244.6 14.1 240 12
2004-02-04 07:51:29 51°12.555 2°48.917 244.5 14.1 240 12.1
2004-02-04 07:51:34 51°12.545 2°48.89 244.2 14.1 240 11.9
2004-02-04 07:51:38 51°12.537 2°48.869 243.8 14.1 239 12
2004-02-04 07:51:44 51°12.525 2°48.837 243.3 14.1 239 12
2004-02-04 07:51:49 51°12.515 2°48.81 243.4 14 239 12
2004-02-04 07:51:54 51°12.505 2°48.783 243.6 14 240 12
2004-02-04 07:51:58 51°12.498 2°48.762 244.1 14 240 12.1
2004-02-04 07:52:04 51°12.486 2°48.729 244.6 14 241 12.1
2004-02-04 07:52:09 51°12.477 2°48.702 245.1 14 240 12.1
2004-02-04 07:52:14 51°12.467 2°48.675 244.9 14 240 12.2
2004-02-04 07:52:19 51°12.457 2°48.649 244.6 14 240 12
2004-02-04 07:52:24 51°12.447 2°48.622 244 14 239 12.1
2004-02-04 07:52:29 51°12.437 2°48.595 243.8 14 239 12.1
2004-02-04 07:52:34 51°12.427 2°48.569 243.6 14 239 12.1
2004-02-04 07:52:40 51°12.416 2°48.536 243.8 14 240 12.1
2004-02-04 07:52:44 51°12.408 2°48.515 244.3 14 241 12.1
2004-02-04 07:52:49 51°12.399 2°48.488 244.7 14 241 12.1
2004-02-04 07:52:54 51°12.389 2°48.461 245 14.1 240 12.2
2004-02-04 07:53:00 51°12.377 2°48.428 244.8 14.1 241 12.1
2004-02-04 07:53:04 51°12.369 2°48.407 244.4 14.1 240 12.1
2004-02-04 07:53:09 51°12.36 2°48.38 243.9 14 240 12.1
2004-02-04 07:53:14 51°12.349 2°48.353 244.2 14.1 240 12.1
2004-02-04 07:53:20 51°12.338 2°48.321 244.2 14.1 241 12.1
2004-02-04 07:53:24 51°12.33 2°48.299 244.9 14.1 241 12.1
2004-02-04 07:53:29 51°12.321 2°48.272 245 14.1 240 12.2
2004-02-04 07:53:34 51°12.311 2°48.245 244.6 14 240 12.2
2004-02-04 07:53:38 51°12.303 2°48.223 244.4 14 240 12.2
2004-02-04 07:53:44 51°12.292 2°48.191 244.5 14.1 241 12.2
2004-02-04 07:53:49 51°12.282 2°48.164 244.5 14.1 240 12.2
2004-02-04 07:53:54 51°12.273 2°48.137 244.8 14.1 241 12.2
2004-02-04 07:54:00 51°12.261 2°48.105 244.6 14.1 240 12.3
2004-02-04 07:54:04 51°12.253 2°48.083 244.4 14.1 240 12.4
2004-02-04 07:54:09 51°12.243 2°48.057 244.2 14.1 239 12.3
2004-02-04 07:54:14 51°12.233 2°48.03 243.8 14 239 12.3
2004-02-04 07:54:19 51°12.223 2°48.003 243.7 14 239 12.3
2004-02-04 07:54:24 51°12.214 2°47.976 243.7 14 240 12.3
2004-02-04 07:54:29 51°12.204 2°47.949 244 14 240 12.2
2004-02-04 07:54:34 51°12.195 2°47.922 244.3 14 241 12.3
2004-02-04 07:54:40 51°12.183 2°47.89 244.8 14 241 12.2
2004-02-04 07:54:44 51°12.176 2°47.868 245 14 241 12.3
2004-02-04 07:54:49 51°12.166 2°47.841 245 14 241 12.3
2004-02-04 07:54:54 51°12.157 2°47.814 244.6 14 240 12.3
2004-02-04 07:55:00 51°12.145 2°47.782 244.3 14 240 12.2
2004-02-04 07:55:04 51°12.137 2°47.761 243.9 14 240 12.2
2004-02-04 07:55:10 51°12.126 2°47.729 243.8 14 240 12.2
2004-02-04 07:55:14 51°12.118 2°47.707 243.8 14 240 12.3
2004-02-04 07:55:19 51°12.109 2°47.681 244 14 240 12.2
2004-02-04 07:55:24 51°12.099 2°47.653 244.7 13.9 242 12.3
2004-02-04 07:55:29 51°12.09 2°47.626 245.9 13.9 242 12.2
2004-02-04 07:55:34 51°12.082 2°47.598 246.5 14 243 12.3
2004-02-04 07:55:40 51°12.071 2°47.565 247.2 14 243 12.3
2004-02-04 07:55:44 51°12.064 2°47.544 247.5 14 243 12.3
2004-02-04 07:55:48 51°12.057 2°47.522 247.3 13.9 243 12.2
2004-02-04 07:55:54 51°12.047 2°47.489 247.2 13.9 243 12.3
2004-02-04 07:55:58 51°12.04 2°47.467 247.5 13.9 243 12.2
2004-02-04 07:56:04 51°12.029 2°47.434 247.5 13.9 244 12.3
2004-02-04 07:56:09 51°12.021 2°47.406 247.7 13.9 243 12.3
2004-02-04 07:56:14 51°12.012 2°47.379 247.5 13.9 243 12.4
2004-02-04 07:56:19 51°12.003 2°47.351 247.5 13.9 243 12.3
2004-02-04 07:56:24 51°11.994 2°47.324 247.2 14 243 12.4
2004-02-04 07:56:29 51°11.986 2°47.296 247.2 13.9 243 12.4
2004-02-04 07:56:34 51°11.977 2°47.269 247.5 13.9 243 12.1
2004-02-04 07:56:39 51°11.969 2°47.241 247.6 13.9 244 12.3
2004-02-04 07:56:44 51°11.96 2°47.214 247.7 13.9 244 12.2
2004-02-04 07:56:49 51°11.951 2°47.186 248 13.9 243 12.4
2004-02-04 07:56:54 51°11.943 2°47.159 247.5 13.9 243 12.4
2004-02-04 07:57:00 51°11.932 2°47.126 247.3 13.9 243 12.2
2004-02-04 07:57:04 51°11.925 2°47.104 247.2 13.9 243 12.3
2004-02-04 07:57:09 51°11.916 2°47.076 247.3 13.9 243 12.2
2004-02-04 07:57:14 51°11.908 2°47.049 247.4 13.9 243 12.3
2004-02-04 07:57:19 51°11.899 2°47.021 247.6 13.9 244 12.3
2004-02-04 07:57:24 51°11.891 2°46.994 247.6 13.9 244 12.3
2004-02-04 07:57:30 51°11.88 2°46.961 247.6 13.9 244 12.3
2004-02-04 07:57:34 51°11.874 2°46.939 247.6 13.9 244 12.3
2004-02-04 07:57:39 51°11.865 2°46.911 247.6 13.9 244 12.3
2004-02-04 07:57:44 51°11.856 2°46.884 247.4 14 243 12.3
2004-02-04 07:57:48 51°11.849 2°46.862 247.3 13.9 243 12.4
2004-02-04 07:57:54 51°11.839 2°46.829 247.2 13.9 243 12.3
2004-02-04 07:57:59 51°11.83 2°46.801 247.1 13.9 243 12.3
2004-02-04 07:58:04 51°11.821 2°46.774 246.9 13.9 243 12.3
2004-02-04 07:58:10 51°11.81 2°46.741 246.8 13.9 243 12.3
2004-02-04 07:58:14 51°11.803 2°46.719 246.6 13.9 243 12.4
2004-02-04 07:58:19 51°11.794 2°46.692 246.6 13.9 243 12.3
2004-02-04 07:58:24 51°11.785 2°46.665 246.7 14 243 12.4
2004-02-04 07:58:28 51°11.778 2°46.643 246.6 13.9 243 12.4
2004-02-04 07:58:34 51°11.768 2°46.61 247 13.9 244 12.4
2004-02-04 07:58:39 51°11.76 2°46.582 247.4 13.9 244 12.4
2004-02-04 07:58:44 51°11.751 2°46.555 247.5 13.9 244 12.4
2004-02-04 07:58:49 51°11.742 2°46.527 247.6 13.9 243 12.4
2004-02-04 07:58:54 51°11.734 2°46.5 247.4 13.9 244 12.4
2004-02-04 07:59:00 51°11.724 2°46.467 247.5 13.9 244 12.4
2004-02-04 07:59:04 51°11.717 2°46.445 247.3 13.9 244 12.4
2004-02-04 07:59:09 51°11.708 2°46.417 247.3 13.9 244 12.4
2004-02-04 07:59:14 51°11.7 2°46.389 247.5 14 244 12.4
2004-02-04 07:59:20 51°11.69 2°46.356 247.6 14 244 12.4
2004-02-04 07:59:24 51°11.683 2°46.334 247.9 14 244 12.4
2004-02-04 07:59:29 51°11.674 2°46.306 247.7 14 244 12.3
2004-02-04 07:59:34 51°11.666 2°46.278 247.8 14 244 12.4
2004-02-04 07:59:38 51°11.659 2°46.256 247.8 14 244 12.3
2004-02-04 07:59:44 51°11.648 2°46.223 247.5 14 244 12.4
2004-02-04 07:59:48 51°11.642 2°46.201 247.6 14 244 12.3
2004-02-04 07:59:54 51°11.631 2°46.167 247.6 14 244 12.3
2004-02-04 08:00:00 51°11.621 2°46.134 247.6 14 244 12.3
2004-02-04 08:00:04 51°11.614 2°46.112 247.7 14 244 12.3
2004-02-04 08:00:09 51°11.606 2°46.084 247.9 14 244 12.2
2004-02-04 08:00:14 51°11.597 2°46.056 248 14 244 12.3
2004-02-04 08:00:20 51°11.587 2°46.023 247.7 14 243 12.2
2004-02-04 08:00:24 51°11.58 2°46.001 247.1 14 244 12.2
2004-02-04 08:00:30 51°11.569 2°45.968 247.1 14 244 12.2
2004-02-04 08:00:34 51°11.562 2°45.946 247.2 14 243 12.2
2004-02-04 08:00:39 51°11.554 2°45.918 247.2 14 243 12.1
2004-02-04 08:00:44 51°11.545 2°45.89 247.2 14 244 12.2
2004-02-04 08:00:50 51°11.535 2°45.857 247.6 14 244 12.2
2004-02-04 08:00:54 51°11.529 2°45.834 248.7 14 246 12.1
2004-02-04 08:00:59 51°11.522 2°45.806 249.6 14 247 12.2
2004-02-04 08:01:04 51°11.514 2°45.777 250.5 14 248 12.1
2004-02-04 08:01:09 51°11.507 2°45.748 251.3 14 247 12.1
2004-02-04 08:01:14 51°11.499 2°45.72 251.5 14 248 12.1
2004-02-04 08:01:18 51°11.494 2°45.697 251.6 14 248 12.1
2004-02-04 08:01:24 51°11.485 2°45.663 251.8 14 248 12.1
2004-02-04 08:01:28 51°11.479 2°45.639 252 14 248 12.1
2004-02-04 08:01:34 51°11.471 2°45.605 252 14 248 12.1
2004-02-04 08:01:40 51°11.462 2°45.571 251.8 14 248 12.1
2004-02-04 08:01:44 51°11.456 2°45.548 251.5 14 247 12.1
2004-02-04 08:01:49 51°11.448 2°45.519 251.1 14 248 12.1
2004-02-04 08:01:54 51°11.441 2°45.491 251.1 14 248 12.1
2004-02-04 08:01:58 51°11.435 2°45.468 251.1 14 247 12.1
2004-02-04 08:02:04 51°11.426 2°45.434 251.1 14 247 12
2004-02-04 08:02:10 51°11.417 2°45.399 251.1 14 248 12.1
2004-02-04 08:02:14 51°11.411 2°45.377 251.3 14 248 12.1
2004-02-04 08:02:19 51°11.404 2°45.348 251.4 14 248 12.1
2004-02-04 08:02:24 51°11.397 2°45.319 251.6 14 248 12.1
2004-02-04 08:02:28 51°11.391 2°45.296 251.6 14 248 12.2
2004-02-04 08:02:34 51°11.382 2°45.262 251.6 14 248 12.1
2004-02-04 08:02:39 51°11.375 2°45.233 251.6 14 248 12.1
2004-02-04 08:02:44 51°11.367 2°45.205 251.7 14 248 12
2004-02-04 08:02:48 51°11.362 2°45.182 251.7 13.9 248 12.1
2004-02-04 08:02:54 51°11.353 2°45.147 251.6 14 248 12.1
2004-02-04 08:02:59 51°11.346 2°45.119 251.6 14 248 12.1
2004-02-04 08:03:04 51°11.338 2°45.09 251.6 14 248 12.1
2004-02-04 08:03:09 51°11.331 2°45.062 251.7 14 248 12
2004-02-04 08:03:14 51°11.324 2°45.033 251.8 14 249 12.1
2004-02-04 08:03:18 51°11.319 2°45.01 252.2 14 248 12.1
2004-02-04 08:03:24 51°11.31 2°44.976 252 14 248 12
2004-02-04 08:03:30 51°11.301 2°44.941 251.9 14 248 12
2004-02-04 08:03:34 51°11.295 2°44.919 251.6 14 248 12
2004-02-04 08:03:38 51°11.289 2°44.896 251.5 14 248 12
2004-02-04 08:03:44 51°11.281 2°44.861 251.5 14 248 12
2004-02-04 08:03:50 51°11.272 2°44.827 251.6 14 248 11.9
2004-02-04 08:03:54 51°11.266 2°44.804 251.7 14 248 12
2004-02-04 08:04:00 51°11.257 2°44.77 251.6 14 248 12.1
2004-02-04 08:04:04 51°11.252 2°44.747 251.5 14 247 12
2004-02-04 08:04:09 51°11.244 2°44.718 251.1 14 248 12
2004-02-04 08:04:14 51°11.237 2°44.69 251.1 14 248 12
2004-02-04 08:04:20 51°11.228 2°44.655 251.3 14 248 12
2004-02-04 08:04:24 51°11.222 2°44.632 251.3 14 248 12
2004-02-04 08:04:29 51°11.215 2°44.603 251.7 14 248 12
2004-02-04 08:04:34 51°11.208 2°44.575 251.6 14 248 12
2004-02-04 08:04:39 51°11.2 2°44.546 251.2 14 247 12
2004-02-04 08:04:44 51°11.193 2°44.518 250.8 14 247 12
2004-02-04 08:04:49 51°11.185 2°44.489 250.7 14 248 12
2004-02-04 08:04:54 51°11.178 2°44.46 250.9 14 248 11.9
2004-02-04 08:05:00 51°11.171 2°44.425 252.1 14 250 12
2004-02-04 08:05:04 51°11.166 2°44.402 253.7 14 252 11.9
2004-02-04 08:05:09 51°11.16 2°44.372 254.8 14 252 11.9
2004-02-04 08:05:14 51°11.154 2°44.343 255.6 14 253 11.9
2004-02-04 08:05:18 51°11.15 2°44.319 256.1 14 253 11.9
2004-02-04 08:05:24 51°11.143 2°44.283 256.7 14.1 253 12
2004-02-04 08:05:28 51°11.138 2°44.26 256.8 14.1 253 12
2004-02-04 08:05:34 51°11.131 2°44.224 256.9 14 253 12
2004-02-04 08:05:40 51°11.124 2°44.189 256.8 14 253 12.1
2004-02-04 08:05:44 51°11.12 2°44.165 256.3 14 252 12
2004-02-04 08:05:48 51°11.115 2°44.141 256.1 14.1 253 12.1
2004-02-04 08:05:54 51°11.108 2°44.106 256 14 252 12.1
2004-02-04 08:05:59 51°11.102 2°44.076 256.1 14 252 12
2004-02-04 08:06:04 51°11.096 2°44.047 255.9 14.1 253 12.1
2004-02-04 08:06:09 51°11.09 2°44.017 256.2 14.1 253 12.1
2004-02-04 08:06:14 51°11.085 2°43.988 256.5 14 253 12.1
2004-02-04 08:06:20 51°11.078 2°43.952 256.6 14 253 12
2004-02-04 08:06:24 51°11.074 2°43.929 256.7 14 253 12.1
2004-02-04 08:06:29 51°11.068 2°43.899 256.8 14 254 12.1
2004-02-04 08:06:34 51°11.063 2°43.869 256.9 14 253 12.1
2004-02-04 08:06:40 51°11.056 2°43.834 256.9 14 254 12.2
2004-02-04 08:06:44 51°11.051 2°43.81 257 14 253 12.2
2004-02-04 08:06:49 51°11.046 2°43.781 256.8 14 253 12.2
2004-02-04 08:06:54 51°11.04 2°43.751 256.2 14 253 12.2
2004-02-04 08:06:58 51°11.035 2°43.728 256.2 14 253 12.2
2004-02-04 08:07:04 51°11.028 2°43.692 256.2 14 253 12.1
2004-02-04 08:07:09 51°11.023 2°43.663 256.2 14 253 12.3
2004-02-04 08:07:14 51°11.017 2°43.633 256.5 14 253 12.2
2004-02-04 08:07:20 51°11.01 2°43.598 256.4 13.9 253 12.2
2004-02-04 08:07:24 51°11.006 2°43.574 256.2 14 253 12.2
2004-02-04 08:07:29 51°11 2°43.545 256 14 252 12.2
2004-02-04 08:07:34 51°10.995 2°43.515 255.6 14 253 12.2
2004-02-04 08:07:39 51°10.989 2°43.486 255.7 14 252 12.2
2004-02-04 08:07:44 51°10.982 2°43.457 255.6 13.9 253 12.2
2004-02-04 08:07:49 51°10.976 2°43.428 255.7 14 252 12.3
2004-02-04 08:07:54 51°10.97 2°43.398 255.7 14 252 12.2
2004-02-04 08:08:00 51°10.963 2°43.363 256.1 14 253 12.2
2004-02-04 08:08:04 51°10.959 2°43.339 256.3 14 253 12.3
2004-02-04 08:08:08 51°10.955 2°43.316 256.6 14 253 12.3
2004-02-04 08:08:14 51°10.948 2°43.28 256.6 14 254 12.3
2004-02-04 08:08:19 51°10.942 2°43.25 256.5 14 253 12.3
2004-02-04 08:08:24 51°10.937 2°43.221 256.6 14 253 12.3
2004-02-04 08:08:29 51°10.931 2°43.191 256.4 14 253 12.3
2004-02-04 08:08:34 51°10.925 2°43.162 256.3 14 253 12.3
2004-02-04 08:08:40 51°10.919 2°43.126 256.5 14 253 12.3
2004-02-04 08:08:44 51°10.914 2°43.103 256.6 14 253 12.4
2004-02-04 08:08:49 51°10.909 2°43.073 256.6 14 253 12.4
2004-02-04 08:08:54 51°10.903 2°43.044 256.6 14 253 12.4
2004-02-04 08:09:00 51°10.896 2°43.008 256.6 14 254 12.3
2004-02-04 08:09:04 51°10.892 2°42.984 256.8 14 253 12.3
2004-02-04 08:09:09 51°10.886 2°42.954 256.8 14 254 12.4
2004-02-04 08:09:14 51°10.881 2°42.925 256.8 14 254 12.4
2004-02-04 08:09:18 51°10.876 2°42.901 256.9 14 254 12.3
2004-02-04 08:09:24 51°10.87 2°42.865 257 14.1 254 12.3
2004-02-04 08:09:29 51°10.864 2°42.836 257.2 14 254 12.3
2004-02-04 08:09:34 51°10.859 2°42.806 257.2 14 253 12.4
2004-02-04 08:09:39 51°10.853 2°42.776 256.9 14 254 12.4
2004-02-04 08:09:44 51°10.848 2°42.746 256.9 14.1 254 12.4
2004-02-04 08:09:49 51°10.842 2°42.717 256.8 14.1 254 12.4
2004-02-04 08:09:54 51°10.837 2°42.687 256.9 14 253 12.4
2004-02-04 08:10:00 51°10.83 2°42.651 256.8 14 253 12.4
2004-02-04 08:10:04 51°10.826 2°42.627 256.9 14 253 12.4
2004-02-04 08:10:09 51°10.82 2°42.598 256.9 14 254 12.4
2004-02-04 08:10:14 51°10.815 2°42.568 256.9 14 253 12.5
2004-02-04 08:10:18 51°10.81 2°42.545 256.4 14 253 12.4
2004-02-04 08:10:24 51°10.803 2°42.509 256.3 14 253 12.5
2004-02-04 08:10:29 51°10.798 2°42.479 256.4 14 254 12.4
2004-02-04 08:10:34 51°10.792 2°42.45 256.6 14 254 12.4
2004-02-04 08:10:38 51°10.788 2°42.426 256.8 14 253 12.4
2004-02-04 08:10:44 51°10.781 2°42.39 256.5 14 253 12.4
2004-02-04 08:10:48 51°10.776 2°42.367 256.3 14 253 12.5
2004-02-04 08:10:54 51°10.77 2°42.331 256.2 14 253 12.5
2004-02-04 08:11:00 51°10.763 2°42.296 256.1 14 253 12.5
2004-02-04 08:11:04 51°10.758 2°42.272 256.2 14 253 12.5
2004-02-04 08:11:09 51°10.753 2°42.242 256.5 14 254 12.4
2004-02-04 08:11:14 51°10.748 2°42.213 256.9 14 254 12.4
2004-02-04 08:11:20 51°10.741 2°42.177 256.9 14 254 12.4
2004-02-04 08:11:24 51°10.737 2°42.153 256.8 14 254 12.5
2004-02-04 08:11:29 51°10.731 2°42.124 256.8 14 253 12.5
2004-02-04 08:11:34 51°10.726 2°42.094 256.5 14 253 12.6
2004-02-04 08:11:38 51°10.721 2°42.07 256.7 14 254 12.5
2004-02-04 08:11:44 51°10.715 2°42.035 256.8 14 254 12.6
2004-02-04 08:11:48 51°10.71 2°42.011 257 14 254 12.5
2004-02-04 08:11:54 51°10.704 2°41.976 257 14 254 12.5
2004-02-04 08:11:58 51°10.699 2°41.952 256.8 14 253 12.6
2004-02-04 08:12:04 51°10.692 2°41.917 256.3 14 253 12.5
2004-02-04 08:12:09 51°10.686 2°41.887 256.2 14 253 12.5
2004-02-04 08:12:14 51°10.681 2°41.857 256.2 14 253 12.6
2004-02-04 08:12:20 51°10.674 2°41.822 256.3 14 254 12.6
2004-02-04 08:12:24 51°10.67 2°41.798 256.6 14 253 12.6
2004-02-04 08:12:28 51°10.665 2°41.775 256.6 14 253 12.6
2004-02-04 08:12:34 51°10.659 2°41.739 256.4 14 253 12.6
2004-02-04 08:12:38 51°10.654 2°41.715 256.2 14 253 12.6
2004-02-04 08:12:44 51°10.647 2°41.68 256.1 14 253 12.6
2004-02-04 08:12:49 51°10.642 2°41.65 256.1 14 253 12.6
2004-02-04 08:12:54 51°10.636 2°41.621 256.2 14 254 12.6
2004-02-04 08:13:00 51°10.63 2°41.585 256.7 14 254 12.6
2004-02-04 08:13:04 51°10.625 2°41.561 257 14 254 12.6
2004-02-04 08:13:09 51°10.62 2°41.532 256.7 14 253 12.7
2004-02-04 08:13:14 51°10.614 2°41.502 256.5 14 253 12.6
2004-02-04 08:13:18 51°10.61 2°41.478 256.1 14 253 12.7
2004-02-04 08:13:24 51°10.602 2°41.443 255.7 14 253 12.6
2004-02-04 08:13:29 51°10.597 2°41.414 255.5 14 253 12.7
2004-02-04 08:13:34 51°10.591 2°41.384 255.8 14 253 12.7
2004-02-04 08:13:38 51°10.587 2°41.361 256 14 253 12.6
2004-02-04 08:13:44 51°10.58 2°41.325 255.9 13.9 253 12.7
2004-02-04 08:13:50 51°10.573 2°41.29 255.8 14 253 12.7
2004-02-04 08:13:54 51°10.568 2°41.267 255.9 14 253 12.8
2004-02-04 08:13:58 51°10.564 2°41.243 256.1 14 253 12.7
2004-02-04 08:14:04 51°10.557 2°41.207 256.4 14 253 12.8
2004-02-04 08:14:09 51°10.552 2°41.178 256.4 14 254 12.8
2004-02-04 08:14:14 51°10.546 2°41.148 256.8 14 253 12.8
2004-02-04 08:14:19 51°10.541 2°41.118 256.7 14 254 12.8
2004-02-04 08:14:24 51°10.535 2°41.089 256.6 14 254 12.8
2004-02-04 08:14:29 51°10.53 2°41.059 256.5 14 253 12.8
2004-02-04 08:14:34 51°10.524 2°41.03 256.4 14 253 12.8
2004-02-04 08:14:38 51°10.519 2°41.006 256.3 14 253 12.8
2004-02-04 08:14:44 51°10.513 2°40.971 256.2 14 253 12.8
2004-02-04 08:14:48 51°10.508 2°40.947 256.2 14 253 12.8
2004-02-04 08:14:54 51°10.501 2°40.912 256.1 14 253 12.9
2004-02-04 08:15:00 51°10.495 2°40.876 256.2 14 253 12.9
2004-02-04 08:15:04 51°10.491 2°40.853 256.2 13.9 254 12.9
2004-02-04 08:15:09 51°10.485 2°40.823 256.3 14 253 12.9
2004-02-04 08:15:14 51°10.48 2°40.793 256.4 14 254 12.9
2004-02-04 08:15:19 51°10.475 2°40.764 256.6 14 254 12.9
2004-02-04 08:15:24 51°10.47 2°40.734 256.9 13.9 255 13
2004-02-04 08:15:29 51°10.465 2°40.704 257.4 13.8 254 13
2004-02-04 08:15:35 51°10.459 2°40.669 257.2 13.8 254 13.1
2004-02-04 08:15:39 51°10.454 2°40.646 256.8 13.8 254 13
2004-02-04 08:15:44 51°10.449 2°40.616 256.3 13.9 254 13.1
2004-02-04 08:15:48 51°10.445 2°40.593 256.2 13.8 254 13.1
2004-02-04 08:15:54 51°10.438 2°40.558 256.2 13.8 254 13.1
2004-02-04 08:15:59 51°10.433 2°40.528 256.6 13.8 254 13.1
2004-02-04 08:16:04 51°10.428 2°40.499 256.8 13.8 254 13.2
2004-02-04 08:16:09 51°10.423 2°40.47 256.9 13.8 254 13.2
2004-02-04 08:16:14 51°10.418 2°40.44 256.9 13.8 254 13.2
2004-02-04 08:16:20 51°10.412 2°40.405 256.9 13.8 254 13.2
2004-02-04 08:16:24 51°10.407 2°40.382 256.7 13.7 254 13.2
2004-02-04 08:16:29 51°10.402 2°40.352 256.4 13.8 253 13.2
2004-02-04 08:16:34 51°10.396 2°40.323 256 13.7 253 13.3
2004-02-04 08:16:40 51°10.39 2°40.288 255.7 13.8 253 13.3
2004-02-04 08:16:44 51°10.385 2°40.265 255.7 13.8 253 13.3
2004-02-04 08:16:49 51°10.38 2°40.236 256.1 13.8 254 13.4
2004-02-04 08:16:54 51°10.375 2°40.206 256.6 13.7 254 13.4
2004-02-04 08:16:58 51°10.371 2°40.183 256.8 13.7 254 13.4
2004-02-04 08:17:04 51°10.364 2°40.148 256.4 13.7 253 13.5
2004-02-04 08:17:08 51°10.36 2°40.125 256.1 13.8 253 13.5
2004-02-04 08:17:14 51°10.353 2°40.09 255.9 13.8 253 13.5
2004-02-04 08:17:18 51°10.349 2°40.067 255.9 13.8 254 13.6
2004-02-04 08:17:24 51°10.343 2°40.032 256.1 13.8 254 13.7
2004-02-04 08:17:29 51°10.337 2°40.002 256.6 13.8 254 13.7
2004-02-04 08:17:34 51°10.332 2°39.973 256.6 13.8 254 13.7
2004-02-04 08:17:39 51°10.326 2°39.944 256.4 13.8 254 13.8
2004-02-04 08:17:44 51°10.321 2°39.915 256.1 13.8 253 13.8
2004-02-04 08:17:49 51°10.316 2°39.886 255.9 13.8 253 13.8
2004-02-04 08:17:54 51°10.31 2°39.856 255.9 13.8 254 13.9
2004-02-04 08:18:00 51°10.304 2°39.821 256.2 13.8 254 13.9
2004-02-04 08:18:04 51°10.3 2°39.798 256.4 13.8 254 13.9
2004-02-04 08:18:08 51°10.296 2°39.775 256.8 13.8 254 14
2004-02-04 08:18:14 51°10.289 2°39.74 256.8 13.8 254 14.1
2004-02-04 08:18:19 51°10.284 2°39.711 256.5 13.8 254 14.1
2004-02-04 08:18:24 51°10.278 2°39.681 256.2 13.8 253 14.1
2004-02-04 08:18:29 51°10.273 2°39.652 256.1 13.8 254 14.3
2004-02-04 08:18:34 51°10.268 2°39.623 256.2 13.8 254 14.3
2004-02-04 08:18:38 51°10.264 2°39.6 256.4 13.8 254 14.4
2004-02-04 08:18:44 51°10.257 2°39.564 256.8 13.8 254 14.5
2004-02-04 08:18:48 51°10.253 2°39.541 256.7 13.9 254 14.5
2004-02-04 08:18:54 51°10.247 2°39.506 256.3 13.8 254 14.6
2004-02-04 08:19:00 51°10.24 2°39.471 256.3 13.8 254 14.4
2004-02-04 08:19:04 51°10.236 2°39.447 256.6 13.8 254 14.8
2004-02-04 08:19:09 51°10.231 2°39.418 256.6 13.8 254 14.8
2004-02-04 08:19:14 51°10.225 2°39.389 256.6 13.9 254 14.9
2004-02-04 08:19:20 51°10.219 2°39.353 256.3 13.9 254 14.9
2004-02-04 08:19:24 51°10.215 2°39.33 256.4 13.9 254 14.9
2004-02-04 08:19:29 51°10.209 2°39.301 256.4 13.9 254 15
2004-02-04 08:19:34 51°10.204 2°39.271 256.4 13.9 254 15.1
2004-02-04 08:19:38 51°10.2 2°39.248 256.4 13.8 254 15.1
2004-02-04 08:19:44 51°10.194 2°39.213 256.5 13.8 254 15.1
2004-02-04 08:19:48 51°10.189 2°39.189 256.5 13.8 254 15.1
2004-02-04 08:19:54 51°10.183 2°39.154 256.6 13.8 254 15.2
2004-02-04 08:19:58 51°10.179 2°39.13 256.5 13.8 254 15.3
2004-02-04 08:20:04 51°10.173 2°39.095 256.6 13.8 254 15.4
2004-02-04 08:20:09 51°10.167 2°39.066 256.6 13.8 254 15.5
2004-02-04 08:20:14 51°10.162 2°39.036 256.5 13.8 254 15.5
2004-02-04 08:20:18 51°10.157 2°39.013 256.2 13.8 254 15.6
2004-02-04 08:20:24 51°10.151 2°38.978 256 13.8 254 15.6
2004-02-04 08:20:28 51°10.147 2°38.954 256.1 13.9 254 15.5
2004-02-04 08:20:34 51°10.14 2°38.919 256.3 13.9 254 15.6
2004-02-04 08:20:38 51°10.136 2°38.895 256.7 13.9 255 15.5
2004-02-04 08:20:44 51°10.13 2°38.86 256.8 13.9 254 15.7
2004-02-04 08:20:49 51°10.125 2°38.831 256.7 13.9 254 15.7
2004-02-04 08:20:54 51°10.119 2°38.801 256.3 13.9 254 15.7
2004-02-04 08:21:00 51°10.113 2°38.766 256.3 13.8 254 15.7
2004-02-04 08:21:04 51°10.109 2°38.743 256.9 13.8 255 15.8
2004-02-04 08:21:08 51°10.105 2°38.719 256.9 13.8 255 15.7
2004-02-04 08:21:14 51°10.099 2°38.684 256.9 13.9 255 15.8
2004-02-04 08:21:20 51°10.092 2°38.648 256.7 13.9 254 15.9
2004-02-04 08:21:24 51°10.088 2°38.625 256.6 13.9 254 16
2004-02-04 08:21:29 51°10.083 2°38.595 256.2 13.9 254 15.9
2004-02-04 08:21:34 51°10.077 2°38.566 256.2 13.8 254 15.9
2004-02-04 08:21:39 51°10.072 2°38.537 256.5 13.8 255 16
2004-02-04 08:21:44 51°10.067 2°38.507 256.8 13.8 255 16.2
2004-02-04 08:21:49 51°10.062 2°38.478 256.7 13.8 254 16.1
2004-02-04 08:21:54 51°10.056 2°38.448 256.5 13.8 254 16.3
2004-02-04 08:21:59 51°10.051 2°38.419 256.2 13.8 254 16.3
2004-02-04 08:22:04 51°10.046 2°38.39 256 13.8 254 16.6
2004-02-04 08:22:09 51°10.04 2°38.36 256.2 13.8 254 16.6
2004-02-04 08:22:14 51°10.035 2°38.331 256.4 13.9 254 16.6
2004-02-04 08:22:18 51°10.031 2°38.307 256.9 13.9 254 16.8
2004-02-04 08:22:24 51°10.025 2°38.272 257 13.8 254 16.9
2004-02-04 08:22:29 51°10.02 2°38.243 256.8 13.8 254 16.9
2004-02-04 08:22:34 51°10.014 2°38.213 256.4 13.9 254 17
2004-02-04 08:22:38 51°10.01 2°38.19 256.2 13.9 254 17
2004-02-04 08:22:44 51°10.004 2°38.155 255.9 13.9 254 17.1
2004-02-04 08:22:49 51°9.998 2°38.125 255.9 13.9 254 17.2
2004-02-04 08:22:54 51°9.993 2°38.096 255.9 13.9 254 17.2
2004-02-04 08:23:00 51°9.987 2°38.061 256.1 13.9 254 17.2
2004-02-04 08:23:04 51°9.983 2°38.037 256.5 13.8 255 16.8
2004-02-04 08:23:09 51°9.977 2°38.007 256.7 13.8 254 17.2
2004-02-04 08:23:14 51°9.972 2°37.978 256.5 13.9 254 17.2
2004-02-04 08:23:20 51°9.966 2°37.943 256.1 13.9 254 17.2
2004-02-04 08:23:24 51°9.961 2°37.919 255.9 13.9 254 17.3
2004-02-04 08:23:29 51°9.956 2°37.89 255.8 13.8 254 17.3
2004-02-04 08:23:34 51°9.95 2°37.861 255.7 13.9 253 17.3
2004-02-04 08:23:40 51°9.944 2°37.825 255.8 13.9 253 17.3
2004-02-04 08:23:44 51°9.94 2°37.801 256.2 13.9 254 17.4
2004-02-04 08:23:49 51°9.935 2°37.772 256.7 13.8 255 17.3
2004-02-04 08:23:54 51°9.93 2°37.743 256.7 13.8 255 17.3
2004-02-04 08:23:59 51°9.924 2°37.713 256.5 13.9 254 17.3
2004-02-04 08:24:04 51°9.919 2°37.684 256.2 13.8 254 17.4
2004-02-04 08:24:10 51°9.912 2°37.649 255.9 13.9 254 17.4
2004-02-04 08:24:14 51°9.908 2°37.625 256 13.8 254 17.4
2004-02-04 08:24:20 51°9.902 2°37.59 256 13.8 253 17.4
2004-02-04 08:24:24 51°9.897 2°37.567 255.4 13.8 253 17.4
2004-02-04 08:24:29 51°9.891 2°37.538 254.7 13.8 252 17.4
2004-02-04 08:24:34 51°9.885 2°37.509 254.4 13.8 252 17.5
2004-02-04 08:24:40 51°9.878 2°37.474 254.2 13.8 252 17.5
2004-02-04 08:24:44 51°9.874 2°37.451 254.2 13.9 252 17.4
2004-02-04 08:24:49 51°9.867 2°37.422 254.1 13.9 252 17.5
2004-02-04 08:24:54 51°9.861 2°37.393 254.1 13.9 252 17.6
2004-02-04 08:24:58 51°9.857 2°37.369 254.2 13.8 252 17.5
2004-02-04 08:25:04 51°9.85 2°37.334 254.3 13.9 253 17.5
2004-02-04 08:25:09 51°9.844 2°37.305 254.6 13.9 252 17.5
2004-02-04 08:25:14 51°9.838 2°37.276 254.5 13.8 252 17.5
2004-02-04 08:25:18 51°9.834 2°37.253 254.2 13.8 252 17.6
2004-02-04 08:25:24 51°9.827 2°37.218 254.4 13.8 253 17.5
2004-02-04 08:25:29 51°9.821 2°37.189 254.7 13.8 252 17.4
2004-02-04 08:25:34 51°9.815 2°37.16 254.4 13.9 252 17.5
2004-02-04 08:25:38 51°9.81 2°37.136 254.2 13.9 252 17.6
2004-02-04 08:25:44 51°9.803 2°37.101 254.1 13.9 252 17.5
2004-02-04 08:25:48 51°9.798 2°37.078 254.1 13.9 252 17.5
2004-02-04 08:25:54 51°9.791 2°37.043 254.4 13.9 252 17.6
2004-02-04 08:26:00 51°9.784 2°37.008 254.3 13.9 252 17.4
2004-02-04 08:26:04 51°9.779 2°36.985 254.1 13.8 252 17.4
2004-02-04 08:26:09 51°9.774 2°36.956 254.4 13.8 252 17.3
2004-02-04 08:26:14 51°9.768 2°36.927 254.4 13.9 253 17
2004-02-04 08:26:20 51°9.761 2°36.892 254.5 13.9 252 17.2
2004-02-04 08:26:24 51°9.756 2°36.868 254.6 13.9 253 17.2
2004-02-04 08:26:29 51°9.751 2°36.839 254.7 13.9 252 17.1
2004-02-04 08:26:34 51°9.744 2°36.81 254.6 13.9 252 16.9
2004-02-04 08:26:38 51°9.74 2°36.787 254 13.9 252 17.4
2004-02-04 08:26:44 51°9.732 2°36.752 254 13.9 252 17.6
2004-02-04 08:26:49 51°9.727 2°36.723 254 13.9 252 17.7
2004-02-04 08:26:54 51°9.721 2°36.694 254.1 13.9 252 17.9
2004-02-04 08:27:00 51°9.714 2°36.659 254.4 13.9 252 17.9
2004-02-04 08:27:04 51°9.709 2°36.635 254.3 13.9 252 17.8
2004-02-04 08:27:09 51°9.703 2°36.606 254.3 13.9 252 18
2004-02-04 08:27:14 51°9.697 2°36.577 254.1 13.9 252 17.9
2004-02-04 08:27:18 51°9.692 2°36.554 254.2 13.9 252 17.7
2004-02-04 08:27:24 51°9.685 2°36.519 254.3 13.8 252 17.7
2004-02-04 08:27:29 51°9.679 2°36.489 254.2 13.9 252 17.7
2004-02-04 08:27:34 51°9.673 2°36.46 254.2 13.8 252 18
2004-02-04 08:27:40 51°9.666 2°36.426 254.3 13.9 252 17.5
2004-02-04 08:27:44 51°9.661 2°36.402 254.5 13.9 252 17.8
2004-02-04 08:27:49 51°9.655 2°36.374 254.2 13.8 252 17.9
2004-02-04 08:27:54 51°9.649 2°36.345 254 13.8 252 17.9
2004-02-04 08:28:00 51°9.642 2°36.31 253.9 13.8 252 17.6
2004-02-04 08:28:04 51°9.637 2°36.286 254 13.8 252 18.1
2004-02-04 08:28:09 51°9.632 2°36.257 254.5 13.8 253 17.5
2004-02-04 08:28:14 51°9.626 2°36.228 254.6 13.9 253 17.6
2004-02-04 08:28:19 51°9.62 2°36.199 254.6 13.8 252 17.5
2004-02-04 08:28:24 51°9.615 2°36.17 254.6 13.9 253 18.1
2004-02-04 08:28:29 51°9.609 2°36.141 254.7 13.9 252 18.1
2004-02-04 08:28:34 51°9.603 2°36.112 254.6 13.8 253 17.6
2004-02-04 08:28:38 51°9.598 2°36.088 254.2 13.8 252 17.6
2004-02-04 08:28:44 51°9.591 2°36.054 254 13.8 252 17.6
2004-02-04 08:28:50 51°9.584 2°36.019 253.7 13.8 252 17.7
2004-02-04 08:28:54 51°9.579 2°35.996 253.7 13.8 252 18
2004-02-04 08:28:59 51°9.573 2°35.967 253.8 13.8 252 17.7
2004-02-04 08:29:04 51°9.567 2°35.938 254.3 13.9 252 17.9
2004-02-04 08:29:09 51°9.562 2°35.909 254.3 13.8 253 18.1
2004-02-04 08:29:14 51°9.556 2°35.88 254.4 13.8 252 18.1
2004-02-04 08:29:20 51°9.549 2°35.846 254.4 13.7 253 18.2
2004-02-04 08:29:24 51°9.545 2°35.824 254.4 13 252 17.7
2004-02-04 08:29:29 51°9.54 2°35.798 254.3 12.6 253 18.1
2004-02-04 08:29:34 51°9.534 2°35.773 254.1 12.6 253 18.2
2004-02-04 08:29:40 51°9.529 2°35.745 253.5 11.6 252 17.7
2004-02-04 08:29:44 51°9.525 2°35.727 252.8 10.6 250 18.4
2004-02-04 08:29:49 51°9.52 2°35.706 251.9 10.1 250 17.8
2004-02-04 08:29:54 51°9.515 2°35.687 250.8 10 249 18.4
2004-02-04 08:30:00 51°9.509 2°35.664 249.7 9.5 248 17.8
2004-02-04 08:30:04 51°9.505 2°35.649 248.7 8.9 247 17.9
2004-02-04 08:30:09 51°9.5 2°35.632 247.8 8.7 247 17.9
2004-02-04 08:30:14 51°9.496 2°35.615 247.6 8.3 249 17.9
2004-02-04 08:30:18 51°9.493 2°35.602 249.7 8.3 249 17.9
2004-02-04 08:30:24 51°9.49 2°35.584 252.4 7.2 254 17.8
2004-02-04 08:30:29 51°9.488 2°35.569 254.9 6.9 256 18
2004-02-04 08:30:34 51°9.486 2°35.555 257.8 6.7 257 18
2004-02-04 08:30:38 51°9.485 2°35.544 260.4 6.3 260 18
2004-02-04 08:30:44 51°9.484 2°35.529 263.2 5.8 264 18.6
2004-02-04 08:30:49 51°9.484 2°35.517 265.8 5.5 267 18.2
2004-02-04 08:30:54 51°9.484 2°35.505 268.9 5.4 268 17.9
2004-02-04 08:31:00 51°9.484 2°35.492 272.1 5.4 268 18.4
2004-02-04 08:31:04 51°9.485 2°35.483 274.6 4.9 274 18.2
2004-02-04 08:31:09 51°9.486 2°35.473 276.9 4.8 276 18.6
2004-02-04 08:31:14 51°9.487 2°35.463 279.1 4.5 280 18.2
2004-02-04 08:31:20 51°9.489 2°35.453 281.4 4.2 283 18.5
2004-02-04 08:31:24 51°9.489 2°35.446 283.7 3.7 285 18.4
2004-02-04 08:31:29 51°9.491 2°35.439 286.2 3.4 288 18.3
2004-02-04 08:31:34 51°9.492 2°35.433 288.8 3.4 288 18.6
2004-02-04 08:31:40 51°9.494 2°35.427 291.2 2.9 290 18.3
2004-02-04 08:31:44 51°9.495 2°35.423 293.5 2.7 296 18.2
2004-02-04 08:31:49 51°9.496 2°35.418 295.6 2.7 297 18.4
2004-02-04 08:31:54 51°9.498 2°35.412 297.6 2.7 299 18.7
2004-02-04 08:31:58 51°9.5 2°35.408 299.3 2.8 300 18.3
2004-02-04 08:32:04 51°9.502 2°35.402 300.8 2.8 302 18.6
2004-02-04 08:32:09 51°9.504 2°35.396 301.9 2.9 302 18.9
2004-02-04 08:32:14 51°9.507 2°35.391 302.9 2.9 304 18.6
2004-02-04 08:32:18 51°9.508 2°35.386 303.6 3 303 18.6
2004-02-04 08:32:24 51°9.511 2°35.38 304.2 3 305 18.9
2004-02-04 08:32:29 51°9.513 2°35.374 304.8 3 305 19
2004-02-04 08:32:34 51°9.516 2°35.369 305.5 3 307 18.9
2004-02-04 08:32:38 51°9.518 2°35.365 306.2 3 307 18.6
2004-02-04 08:32:44 51°9.521 2°35.358 307 3.1 308 18.8
2004-02-04 08:32:49 51°9.524 2°35.353 307.7 3.1 308 19.1
2004-02-04 08:32:54 51°9.526 2°35.348 308.6 3 311 19.1
2004-02-04 08:33:00 51°9.53 2°35.342 310.1 3 311 19.2
2004-02-04 08:33:04 51°9.532 2°35.338 311.9 3.1 314 19.3
2004-02-04 08:33:09 51°9.535 2°35.333 314 3.1 315 19.4
2004-02-04 08:33:14 51°9.538 2°35.329 317.1 3.1 317 19.3
2004-02-04 08:33:18 51°9.541 2°35.325 319.5 3.1 319 19.3
2004-02-04 08:33:24 51°9.545 2°35.32 322.1 3.1 324 19.4
2004-02-04 08:33:29 51°9.548 2°35.316 324.8 3.1 324 19.4
2004-02-04 08:33:34 51°9.552 2°35.312 327 3.1 326 19.5
2004-02-04 08:33:40 51°9.556 2°35.308 329 3.1 327 19.5
2004-02-04 08:33:44 51°9.559 2°35.306 330.7 3.1 331 19.5
2004-02-04 08:33:48 51°9.562 2°35.303 333.1 3.1 332 19.6
2004-02-04 08:33:54 51°9.567 2°35.299 334.7 3.1 333 19.6
2004-02-04 08:34:00 51°9.572 2°35.296 336.1 3.1 334 19.4
2004-02-04 08:34:04 51°9.575 2°35.293 337.5 3.1 336 19.5
2004-02-04 08:34:09 51°9.579 2°35.291 338.7 3.2 338 19.6
2004-02-04 08:34:14 51°9.583 2°35.288 340.1 3.1 339 19.6
2004-02-04 08:34:18 51°9.586 2°35.286 341.7 3.1 340 19.5
2004-02-04 08:34:24 51°9.591 2°35.284 343.3 3.1 342 19.5
2004-02-04 08:34:29 51°9.595 2°35.282 345.2 3.1 343 19.5
2004-02-04 08:34:34 51°9.6 2°35.28 346.8 3.2 343 19.5
2004-02-04 08:34:40 51°9.605 2°35.278 348.2 3.2 346 19.6
2004-02-04 08:34:44 51°9.608 2°35.277 349.8 3.1 349 19.7
2004-02-04 08:34:49 51°9.612 2°35.276 351.2 3.1 351 19.8
2004-02-04 08:34:54 51°9.617 2°35.275 352.9 3.1 350 19.9
2004-02-04 08:35:00 51°9.622 2°35.274 354.3 3.1 351 19.9
2004-02-04 08:35:04 51°9.625 2°35.273 355.6 3.1 355 19.8
2004-02-04 08:35:09 51°9.63 2°35.273 357 3.1 354 19.9
2004-02-04 08:35:14 51°9.634 2°35.272 358.1 3.2 355 20
2004-02-04 08:35:19 51°9.638 2°35.271 359.2 3.2 356 20
2004-02-04 08:35:24 51°9.643 2°35.271 0.6 3.2 358 20
2004-02-04 08:35:29 51°9.647 2°35.271 1.6 3.2   20
2004-02-04 08:35:34 51°9.652 2°35.271 3.5 3.2   20
2004-02-04 08:35:38 51°9.655 2°35.272 5 3.1 3 20
2004-02-04 08:35:44 51°9.66 2°35.272 6.5 3.2 4 20
2004-02-04 08:35:49 51°9.665 2°35.273 8.3 3.2 6 19.8
2004-02-04 08:35:54 51°9.669 2°35.274 10.1 3.2 6 19.7
2004-02-04 08:35:59 51°9.673 2°35.275 11.4 3.2 9 19.7
2004-02-04 08:36:04 51°9.678 2°35.276 13 3.2 10 19.7
2004-02-04 08:36:09 51°9.682 2°35.278 14.6 3.2 11 19.7
2004-02-04 08:36:14 51°9.686 2°35.279 15.8 3.2 11 19.7
2004-02-04 08:36:19 51°9.691 2°35.281 17.3 3.2 11 19.7
2004-02-04 08:36:24 51°9.695 2°35.283 18.8 3.2 17 19.7
2004-02-04 08:36:29 51°9.699 2°35.285 20.3 3.2 16 19.7
2004-02-04 08:36:34 51°9.703 2°35.287 22.1 3.2 16 19.7
2004-02-04 08:36:39 51°9.708 2°35.289 23.5 3.2 20 19.6
2004-02-04 08:36:44 51°9.712 2°35.292 24.9 3.2 20 19.7
2004-02-04 08:36:49 51°9.716 2°35.294 26.5 3.2 22 19.7
2004-02-04 08:36:54 51°9.72 2°35.297 28.2 3.2 22 19.6
2004-02-04 08:36:59 51°9.724 2°35.3 30 3.2 26 19.7
2004-02-04 08:37:04 51°9.728 2°35.303 31.2 3.2 26 19.7
2004-02-04 08:37:09 51°9.732 2°35.307 32.6 3.2 28 19.7
2004-02-04 08:37:14 51°9.736 2°35.31 34.2 3.2 28 19.6
2004-02-04 08:37:19 51°9.74 2°35.314 36.1 3.2 30 19.6
2004-02-04 08:37:24 51°9.743 2°35.317 37.5 3.2 32 19.6
2004-02-04 08:37:29 51°9.747 2°35.321 38.8 3.2 33 19.6
2004-02-04 08:37:34 51°9.751 2°35.325 40.1 3.2 34 19.6
2004-02-04 08:37:38 51°9.754 2°35.329 41.6 3.2 34 19.6
2004-02-04 08:37:44 51°9.758 2°35.334 43.2 3.2 38 19.6
2004-02-04 08:37:49 51°9.761 2°35.338 44.7 3.2 38 19.6
2004-02-04 08:37:54 51°9.765 2°35.343 46.2 3.2 39 19.7
2004-02-04 08:38:00 51°9.769 2°35.348 47.6 3.2 42 19.7
2004-02-04 08:38:04 51°9.771 2°35.352 49.2 3.2 43 19.7
2004-02-04 08:38:10 51°9.775 2°35.358 50.8 3.2 44 19.7
2004-02-04 08:38:14 51°9.778 2°35.362 52.3 3.2 44 19.7
2004-02-04 08:38:20 51°9.781 2°35.368 53.7 3.2 46 19.7
2004-02-04 08:38:24 51°9.784 2°35.372 55.4 3.2 49 19.7
2004-02-04 08:38:29 51°9.787 2°35.378 57.1 3.2 50 19.7